| time (UTC) | temp F | wind direction | speed MPH | gust MPH | rain 1hr in | rain 24hr in | rain mn in | humidity % | barometer mb |
| 20260904174002 | 63 | 233 | 9.0 | 13.0 | 0.00 | 0.00 | 0.00 | 59 | 1017.1 |
| 20260904173502 | 63 | 238 | 9.0 | 15.0 | 0.00 | 0.00 | 0.00 | 58 | 1017.0 |
| 20260904173002 | 63 | 235 | 7.0 | 15.0 | 0.00 | 0.00 | 0.00 | 58 | 1017.1 |
| 20260904172502 | 63 | 233 | 7.0 | 12.0 | 0.00 | 0.00 | 0.00 | 58 | 1017.0 |
| 20260904172003 | 63 | 240 | 7.0 | 10.0 | 0.00 | 0.00 | 0.00 | 58 | 1017.0 |
| 20260904171502 | 62 | 239 | 5.0 | 12.0 | 0.00 | 0.00 | 0.00 | 59 | 1017.1 |
| 20260904171002 | 62 | 238 | 4.0 | 10.0 | 0.00 | 0.00 | 0.00 | 60 | 1017.1 |
| 20260904170502 | 62 | 242 | 5.0 | 11.0 | 0.00 | 0.00 | 0.00 | 60 | 1017.0 |
| 20260904170002 | 61 | 240 | 6.0 | 14.0 | 0.00 | 0.00 | 0.00 | 60 | 1017.0 |
| 20260904165502 | 61 | 236 | 7.0 | 12.0 | 0.00 | 0.00 | 0.00 | 60 | 1017.0 |
| 20260904165003 | 61 | 242 | 8.0 | 11.0 | 0.00 | 0.00 | 0.00 | 60 | 1016.9 |
| 20260904164502 | 61 | 238 | 8.0 | 12.0 | 0.00 | 0.00 | 0.00 | 60 | 1016.7 |
| 20260904164002 | 61 | 241 | 7.0 | 14.0 | 0.00 | 0.00 | 0.00 | 60 | 1016.5 |
| 20260904163502 | 61 | 233 | 6.0 | 13.0 | 0.00 | 0.00 | 0.00 | 60 | 1016.5 |
| 20260904163002 | 61 | 237 | 6.0 | 12.0 | 0.00 | 0.00 | 0.00 | 60 | 1016.5 |
| 20260904162503 | 61 | 235 | 6.0 | 11.0 | 0.00 | 0.00 | 0.00 | 60 | 1016.4 |
| 20260904162003 | 61 | 240 | 5.0 | 12.0 | 0.00 | 0.00 | 0.00 | 60 | 1016.4 |
| 20260904161502 | 60 | 235 | 4.0 | 12.0 | 0.00 | 0.00 | 0.00 | 61 | 1016.5 |
| 20260904160502 | 60 | 242 | 5.0 | 8.0 | 0.00 | 0.00 | 0.00 | 62 | 1016.5 |
| 20260904160002 | 59 | 236 | 5.0 | 8.0 | 0.00 | 0.00 | 0.00 | 63 | 1016.4 |
| 20260904155503 | 59 | 240 | 5.0 | 10.0 | 0.00 | 0.00 | 0.00 | 63 | 1016.6 |
| 20260904155002 | 59 | 236 | 5.0 | 8.0 | 0.00 | 0.00 | 0.00 | 63 | 1016.5 |
| 20260904154003 | 58 | 240 | 3.0 | 11.0 | 0.00 | 0.00 | 0.00 | 64 | 1016.5 |
| 20260904153502 | 58 | 241 | 3.0 | 8.0 | 0.00 | 0.00 | 0.00 | 65 | 1016.6 |
| 20260904153002 | 58 | 241 | 3.0 | 5.0 | 0.00 | 0.00 | 0.00 | 66 | 1016.6 |
| 20260904152503 | 57 | 241 | 3.0 | 7.0 | 0.00 | 0.00 | 0.00 | 66 | 1016.5 |
| 20260904152003 | 57 | 241 | 3.0 | 7.0 | 0.00 | 0.00 | 0.00 | 67 | 1016.5 |
| 20260904151502 | 57 | 239 | 3.0 | 8.0 | 0.00 | 0.00 | 0.00 | 67 | 1016.6 |
| 20260904151002 | 57 | 235 | 3.0 | 5.0 | 0.00 | 0.00 | 0.00 | 67 | 1016.5 |
| 20260904150503 | 56 | 242 | 2.0 | 8.0 | 0.00 | 0.00 | 0.00 | 68 | 1016.4 |
| 20260904150002 | 56 | 237 | 2.0 | 4.0 | 0.00 | 0.00 | 0.00 | 69 | 1016.3 |
| 20260904145503 | 56 | 238 | 2.0 | 8.0 | 0.00 | 0.00 | 0.00 | 69 | 1016.3 |
| 20260904145002 | 55 | 245 | 2.0 | 5.0 | 0.00 | 0.00 | 0.00 | 71 | 1016.2 |
| 20260904144502 | 54 | 243 | 2.0 | 4.0 | 0.00 | 0.00 | 0.00 | 73 | 1016.2 |
| 20260904144003 | 53 | 241 | 1.0 | 6.0 | 0.00 | 0.00 | 0.00 | 75 | 1016.1 |
| 20260904143502 | 52 | 201 | 0.0 | 3.0 | 0.00 | 0.00 | 0.00 | 76 | 1016.1 |
| 20260904143002 | 52 | 0 | 0.0 | 0.0 | 0.00 | 0.00 | 0.00 | 75 | 1016.0 |
| 20260904142503 | 52 | 0 | 0.0 | 0.0 | 0.00 | 0.00 | 0.00 | 75 | 1016.1 |
| 20260904142002 | 52 | 0 | 0.0 | 0.0 | 0.00 | 0.00 | 0.00 | 75 | 1016.0 |
| 20260904141503 | 51 | 0 | 0.0 | 0.0 | 0.00 | 0.00 | 0.00 | 75 | 1016.0 |
| 20260904141003 | 51 | 0 | 0.0 | 0.0 | 0.00 | 0.00 | 0.00 | 75 | 1016.0 |
| 20260904140502 | 51 | 63 | 0.0 | 1.0 | 0.00 | 0.00 | 0.00 | 74 | 1015.9 |
| 20260904135503 | 52 | 0 | 0.0 | 0.0 | 0.00 | 0.00 | 0.00 | 73 | 1015.8 |
| 20260904135003 | 52 | 0 | 0.0 | 0.0 | 0.00 | 0.00 | 0.00 | 73 | 1015.8 |
| 20260904134502 | 52 | 134 | 0.0 | 1.0 | 0.00 | 0.00 | 0.00 | 73 | 1015.8 |
| 20260904133503 | 52 | 0 | 0.0 | 0.0 | 0.00 | 0.00 | 0.00 | 72 | 1015.7 |
| 20260904133003 | 52 | 0 | 0.0 | 0.0 | 0.00 | 0.00 | 0.00 | 71 | 1015.8 |
| 20260904132502 | 52 | 0 | 0.0 | 0.0 | 0.00 | 0.00 | 0.00 | 71 | 1015.8 |
| 20260904132002 | 53 | 0 | 0.0 | 0.0 | 0.00 | 0.00 | 0.00 | 71 | 1015.9 |
| 20260904131502 | 53 | 0 | 0.0 | 0.0 | 0.00 | 0.00 | 0.00 | 71 | 1015.8 |
| 20260904131003 | 53 | 0 | 0.0 | 0.0 | 0.00 | 0.00 | 0.00 | 71 | 1015.7 |
| 20260904130503 | 53 | 0 | 0.0 | 0.0 | 0.00 | 0.00 | 0.00 | 70 | 1015.7 |
| 20260904125502 | 54 | 159 | 0.0 | 1.0 | 0.00 | 0.00 | 0.00 | 69 | 1015.6 |
| 20260904125002 | 54 | 116 | 0.0 | 1.0 | 0.00 | 0.00 | 0.00 | 69 | 1015.6 |
| 20260904124503 | 54 | 0 | 0.0 | 0.0 | 0.00 | 0.00 | 0.00 | 69 | 1015.6 |
| 20260904124002 | 54 | 0 | 0.0 | 0.0 | 0.00 | 0.00 | 0.00 | 68 | 1015.6 |
| 20260904123003 | 55 | 0 | 0.0 | 0.0 | 0.00 | 0.00 | 0.00 | 68 | 1015.4 |
| 20260904122502 | 55 | 0 | 0.0 | 0.0 | 0.00 | 0.00 | 0.00 | 68 | 1015.5 |
| 20260904122003 | 55 | 129 | 0.0 | 1.0 | 0.00 | 0.00 | 0.00 | 68 | 1015.4 |
| 20260904121503 | 55 | 0 | 0.0 | 0.0 | 0.00 | 0.00 | 0.00 | 68 | 1015.4 |
| 20260904121002 | 55 | 131 | 0.0 | 1.0 | 0.00 | 0.00 | 0.00 | 67 | 1015.4 |
| 20260904115502 | 56 | 205 | 0.0 | 1.0 | 0.00 | 0.00 | 0.00 | 66 | 1015.5 |
| 20260904114003 | 56 | 0 | 0.0 | 0.0 | 0.00 | 0.00 | 0.00 | 66 | 1015.5 |
| 20260904113502 | 56 | 243 | 0.0 | 1.0 | 0.00 | 0.00 | 0.00 | 66 | 1015.5 |
| 20260904113003 | 56 | 244 | 1.0 | 2.0 | 0.00 | 0.00 | 0.00 | 66 | 1015.6 |
| 20260904112503 | 56 | 242 | 1.0 | 2.0 | 0.00 | 0.00 | 0.00 | 66 | 1015.5 |
| 20260904111503 | 56 | 245 | 1.0 | 3.0 | 0.00 | 0.00 | 0.00 | 66 | 1015.4 |
| 20260904110503 | 56 | 224 | 0.0 | 2.0 | 0.00 | 0.00 | 0.00 | 66 | 1015.4 |
| 20260904110003 | 57 | 201 | 0.0 | 1.0 | 0.00 | 0.00 | 0.00 | 66 | 1015.4 |
| 20260904105502 | 57 | 0 | 0.0 | 0.0 | 0.00 | 0.00 | 0.00 | 66 | 1015.5 |
| 20260904103502 | 57 | 0 | 0.0 | 0.0 | 0.00 | 0.00 | 0.00 | 64 | 1015.4 |
| 20260904103003 | 57 | 0 | 0.0 | 0.0 | 0.00 | 0.00 | 0.00 | 64 | 1015.4 |
| 20260904102503 | 57 | 166 | 0.0 | 1.0 | 0.00 | 0.00 | 0.00 | 63 | 1015.2 |
| 20260904102002 | 57 | 0 | 0.0 | 0.0 | 0.00 | 0.00 | 0.00 | 64 | 1015.3 |
| 20260904101503 | 57 | 0 | 0.0 | 0.0 | 0.00 | 0.00 | 0.00 | 63 | 1015.3 |
| 20260904101003 | 57 | 0 | 0.0 | 0.0 | 0.00 | 0.00 | 0.00 | 63 | 1015.3 |
| 20260904100503 | 57 | 0 | 0.0 | 0.0 | 0.00 | 0.00 | 0.00 | 63 | 1015.4 |
| 20260904100003 | 58 | 0 | 0.0 | 0.0 | 0.00 | 0.00 | 0.00 | 62 | 1015.3 |
| 20260904095502 | 58 | 0 | 0.0 | 0.0 | 0.00 | 0.00 | 0.00 | 62 | 1015.4 |
| 20260904095003 | 58 | 0 | 0.0 | 0.0 | 0.00 | 0.00 | 0.00 | 62 | 1015.4 |
| 20260904094503 | 58 | 0 | 0.0 | 0.0 | 0.00 | 0.00 | 0.00 | 61 | 1015.3 |
| 20260904094002 | 58 | 166 | 0.0 | 1.0 | 0.00 | 0.00 | 0.00 | 61 | 1015.4 |
| 20260904093503 | 58 | 169 | 0.0 | 1.0 | 0.00 | 0.00 | 0.00 | 61 | 1015.4 |
| 20260904091502 | 58 | 0 | 0.0 | 0.0 | 0.00 | 0.00 | 0.00 | 61 | 1015.4 |
| 20260904090004 | 59 | 0 | 0.0 | 0.0 | 0.00 | 0.00 | 0.00 | 59 | 1015.4 |
| 20260904085503 | 59 | 161 | 0.0 | 1.0 | 0.00 | 0.00 | 0.00 | 59 | 1015.5 |
| 20260904085003 | 60 | 160 | 0.0 | 1.0 | 0.00 | 0.00 | 0.00 | 59 | 1015.5 |
| 20260904084503 | 60 | 159 | 0.0 | 1.0 | 0.00 | 0.00 | 0.00 | 58 | 1015.6 |
| 20260904083503 | 60 | 0 | 0.0 | 0.0 | 0.00 | 0.00 | 0.00 | 57 | 1015.6 |
| 20260904083002 | 61 | 0 | 0.0 | 0.0 | 0.00 | 0.00 | 0.00 | 57 | 1015.7 |
| 20260904082503 | 61 | 135 | 0.0 | 1.0 | 0.00 | 0.00 | 0.00 | 56 | 1015.8 |
| 20260904082003 | 61 | 143 | 0.0 | 1.0 | 0.00 | 0.00 | 0.00 | 56 | 1015.9 |
| 20260904081503 | 62 | 160 | 0.0 | 1.0 | 0.00 | 0.00 | 0.00 | 54 | 1015.7 |
| 20260904081003 | 62 | 0 | 0.0 | 0.0 | 0.00 | 0.00 | 0.00 | 54 | 1015.7 |
| 20260904080503 | 62 | 164 | 1.0 | 1.0 | 0.00 | 0.00 | 0.00 | 54 | 1015.7 |
| 20260904080003 | 62 | 177 | 1.0 | 3.0 | 0.00 | 0.00 | 0.00 | 54 | 1015.7 |
| 20260904075503 | 62 | 217 | 2.0 | 2.0 | 0.00 | 0.00 | 0.00 | 54 | 1015.6 |
| 20260904075003 | 62 | 167 | 3.0 | 4.0 | 0.00 | 0.00 | 0.00 | 53 | 1015.6 |
| 20260904074503 | 62 | 164 | 3.0 | 8.0 | 0.00 | 0.00 | 0.00 | 53 | 1015.6 |
| 20260904074003 | 62 | 167 | 4.0 | 5.0 | 0.00 | 0.00 | 0.00 | 54 | 1015.6 |
| 20260904073003 | 62 | 145 | 4.0 | 7.0 | 0.00 | 0.00 | 0.00 | 54 | 1015.7 |
| 20260904072502 | 62 | 153 | 4.0 | 7.0 | 0.00 | 0.00 | 0.00 | 54 | 1015.6 |
| 20260904072003 | 62 | 147 | 3.0 | 7.0 | 0.00 | 0.00 | 0.00 | 54 | 1015.6 |
| 20260904071503 | 62 | 150 | 2.0 | 10.0 | 0.00 | 0.00 | 0.00 | 55 | 1015.6 |
| 20260904071003 | 62 | 163 | 4.0 | 5.0 | 0.00 | 0.00 | 0.00 | 54 | 1015.5 |
| 20260904070503 | 61 | 156 | 4.0 | 9.0 | 0.00 | 0.00 | 0.00 | 56 | 1015.5 |
| 20260904070004 | 60 | 152 | 2.0 | 9.0 | 0.00 | 0.00 | 0.00 | 57 | 1015.6 |
| 20260904065502 | 60 | 153 | 0.0 | 9.0 | 0.00 | 0.00 | 0.00 | 57 | 1015.6 |
| 20260904064503 | 60 | 172 | 0.0 | 2.0 | 0.00 | 0.00 | 0.00 | 56 | 1015.5 |
| 20260904064003 | 60 | 192 | 0.0 | 1.0 | 0.00 | 0.00 | 0.00 | 55 | 1015.5 |
| 20260904063502 | 60 | 209 | 0.0 | 1.0 | 0.00 | 0.00 | 0.00 | 55 | 1015.5 |
| 20260904063003 | 60 | 227 | 0.0 | 1.0 | 0.00 | 0.00 | 0.00 | 55 | 1015.4 |
| 20260904062503 | 60 | 0 | 0.0 | 0.0 | 0.00 | 0.00 | 0.00 | 54 | 1015.3 |
| 20260904062003 | 60 | 0 | 0.0 | 0.0 | 0.00 | 0.00 | 0.00 | 55 | 1015.5 |
| 20260904061502 | 60 | 0 | 0.0 | 0.0 | 0.00 | 0.00 | 0.00 | 54 | 1015.4 |
| 20260904061003 | 60 | 0 | 0.0 | 0.0 | 0.00 | 0.00 | 0.00 | 53 | 1015.3 |
| 20260904060503 | 60 | 0 | 0.0 | 0.0 | 0.00 | 0.00 | 0.00 | 53 | 1015.3 |
| 20260904060003 | 60 | 0 | 0.0 | 0.0 | 0.00 | 0.00 | 0.00 | 53 | 1015.3 |
| 20260904055503 | 60 | 232 | 0.0 | 1.0 | 0.00 | 0.00 | 0.00 | 53 | 1015.2 |
| 20260904055003 | 60 | 232 | 0.0 | 1.0 | 0.00 | 0.00 | 0.00 | 52 | 1015.2 |
| 20260904054503 | 60 | 215 | 0.0 | 2.0 | 0.00 | 0.00 | 0.00 | 53 | 1015.2 |
| 20260904054003 | 60 | 0 | 0.0 | 0.0 | 0.00 | 0.00 | 0.00 | 53 | 1015.2 |
| 20260904053503 | 60 | 95 | 0.0 | 1.0 | 0.00 | 0.00 | 0.00 | 53 | 1015.2 |
| 20260904053003 | 60 | 0 | 0.0 | 0.0 | 0.00 | 0.00 | 0.00 | 52 | 1015.2 |
| 20260904052502 | 60 | 95 | 0.0 | 1.0 | 0.00 | 0.00 | 0.00 | 52 | 1015.3 |
| 20260904052002 | 60 | 0 | 0.0 | 0.0 | 0.00 | 0.00 | 0.00 | 51 | 1015.3 |
| 20260904051503 | 61 | 148 | 0.0 | 2.0 | 0.00 | 0.00 | 0.00 | 52 | 1015.3 |
| 20260904051003 | 61 | 137 | 0.0 | 2.0 | 0.00 | 0.00 | 0.00 | 52 | 1015.4 |
| 20260904050503 | 61 | 133 | 1.0 | 2.0 | 0.00 | 0.00 | 0.00 | 52 | 1015.4 |
| 20260904050004 | 61 | 167 | 1.0 | 2.0 | 0.00 | 0.00 | 0.00 | 52 | 1015.4 |
| 20260904045503 | 61 | 120 | 0.0 | 3.0 | 0.00 | 0.00 | 0.00 | 52 | 1015.4 |
| 20260904045003 | 61 | 144 | 0.0 | 2.0 | 0.00 | 0.00 | 0.00 | 51 | 1015.4 |
| 20260904044503 | 62 | 143 | 0.0 | 2.0 | 0.00 | 0.00 | 0.00 | 51 | 1015.3 |
| 20260904044003 | 62 | 150 | 1.0 | 2.0 | 0.00 | 0.00 | 0.00 | 51 | 1015.3 |
| 20260904043503 | 62 | 147 | 1.0 | 2.0 | 0.00 | 0.00 | 0.00 | 51 | 1015.3 |
| 20260904043004 | 62 | 139 | 1.0 | 2.0 | 0.00 | 0.00 | 0.00 | 51 | 1015.2 |
| 20260904042503 | 62 | 146 | 0.0 | 2.0 | 0.00 | 0.00 | 0.00 | 51 | 1015.4 |
| 20260904042003 | 62 | 154 | 1.0 | 1.0 | 0.00 | 0.00 | 0.00 | 50 | 1015.3 |
| 20260904041502 | 62 | 150 | 1.0 | 3.0 | 0.00 | 0.00 | 0.00 | 51 | 1015.4 |
| 20260904041003 | 63 | 137 | 0.0 | 2.0 | 0.00 | 0.00 | 0.00 | 50 | 1015.3 |
| 20260904040503 | 63 | 138 | 1.0 | 2.0 | 0.00 | 0.00 | 0.00 | 50 | 1015.2 |
| 20260904040003 | 63 | 146 | 2.0 | 2.0 | 0.00 | 0.00 | 0.00 | 50 | 1015.2 |
| 20260904035503 | 63 | 144 | 2.0 | 3.0 | 0.00 | 0.00 | 0.00 | 50 | 1015.2 |
| 20260904035003 | 63 | 141 | 2.0 | 4.0 | 0.00 | 0.00 | 0.00 | 50 | 1015.2 |
| 20260904034004 | 63 | 146 | 2.0 | 4.0 | 0.00 | 0.00 | 0.00 | 49 | 1015.2 |
| 20260904033503 | 63 | 152 | 1.0 | 3.0 | 0.00 | 0.00 | 0.00 | 49 | 1015.3 |
| 20260904033003 | 63 | 154 | 1.0 | 2.0 | 0.00 | 0.00 | 0.00 | 48 | 1015.2 |
| 20260904032003 | 64 | 163 | 2.0 | 3.0 | 0.00 | 0.00 | 0.00 | 48 | 1015.2 |
| 20260904031004 | 64 | 156 | 2.0 | 5.0 | 0.00 | 0.00 | 0.00 | 47 | 1015.1 |
| 20260904030503 | 64 | 163 | 1.0 | 3.0 | 0.00 | 0.00 | 0.00 | 46 | 1015.2 |
| 20260904030003 | 64 | 160 | 1.0 | 4.0 | 0.00 | 0.00 | 0.00 | 45 | 1015.2 |
| 20260904025003 | 65 | 174 | 2.0 | 2.0 | 0.00 | 0.00 | 0.00 | 45 | 1015.2 |
| 20260904024003 | 65 | 174 | 3.0 | 3.0 | 0.00 | 0.00 | 0.00 | 45 | 1015.2 |
| 20260904023504 | 66 | 181 | 4.0 | 5.0 | 0.00 | 0.00 | 0.00 | 45 | 1015.2 |
| 20260904023003 | 66 | 181 | 4.0 | 9.0 | 0.00 | 0.00 | 0.00 | 45 | 1015.2 |
| 20260904022502 | 66 | 191 | 4.0 | 6.0 | 0.00 | 0.00 | 0.00 | 45 | 1015.2 |
| 20260904021003 | 66 | 209 | 5.0 | 9.0 | 0.00 | 0.00 | 0.00 | 44 | 1015.2 |
| 20260904020004 | 67 | 219 | 6.0 | 9.0 | 0.00 | 0.00 | 0.00 | 42 | 1015.1 |
| 20260904015503 | 67 | 235 | 6.0 | 12.0 | 0.00 | 0.00 | 0.00 | 41 | 1015.2 |
| 20260904015003 | 67 | 229 | 7.0 | 11.0 | 0.00 | 0.00 | 0.00 | 41 | 1015.2 |
| 20260904014003 | 68 | 232 | 7.0 | 14.0 | 0.00 | 0.00 | 0.00 | 39 | 1015.1 |
| 20260904013503 | 69 | 220 | 7.0 | 10.0 | 0.00 | 0.00 | 0.00 | 38 | 1015.2 |
| 20260904013004 | 69 | 226 | 8.0 | 7.0 | 0.00 | 0.00 | 0.00 | 38 | 1015.3 |
| 20260904012503 | 69 | 235 | 8.0 | 13.0 | 0.00 | 0.00 | 0.00 | 37 | 1015.2 |
| 20260904012003 | 69 | 233 | 8.0 | 13.0 | 0.00 | 0.00 | 0.00 | 37 | 1015.3 |
| 20260904011503 | 70 | 228 | 8.0 | 13.0 | 0.00 | 0.00 | 0.00 | 37 | 1015.2 |
| 20260904011004 | 70 | 218 | 9.0 | 12.0 | 0.00 | 0.00 | 0.00 | 37 | 1015.2 |
| 20260904010503 | 70 | 214 | 9.0 | 10.0 | 0.00 | 0.00 | 0.00 | 37 | 1015.3 |
| 20260904005503 | 70 | 219 | 9.0 | 13.0 | 0.00 | 0.00 | 0.00 | 36 | 1015.3 |
| 20260904005003 | 70 | 220 | 9.0 | 13.0 | 0.00 | 0.00 | 0.00 | 35 | 1015.3 |
| 20260904003503 | 71 | 212 | 9.0 | 12.0 | 0.00 | 0.00 | 0.00 | 34 | 1015.3 |
| 20260904003003 | 71 | 218 | 9.0 | 15.0 | 0.00 | 0.00 | 0.00 | 34 | 1015.3 |
| 20260904002503 | 71 | 212 | 8.0 | 14.0 | 0.00 | 0.00 | 0.00 | 34 | 1015.3 |
| 20260904001504 | 71 | 210 | 9.0 | 11.0 | 0.00 | 0.00 | 0.00 | 34 | 1015.4 |
| 20260904001003 | 71 | 216 | 10.0 | 16.0 | 0.00 | 0.00 | 0.00 | 34 | 1015.4 |
| 20260904000503 | 71 | 222 | 10.0 | 16.0 | 0.00 | 0.00 | 0.00 | 35 | 1015.4 |
| 20260904000003 | 71 | 222 | 10.0 | 16.0 | 0.00 | 0.00 | 0.00 | 35 | 1015.3 |
| 20260903235503 | 71 | 234 | 10.0 | 18.0 | 0.00 | 0.00 | 0.00 | 35 | 1015.3 |
| 20260903235004 | 71 | 221 | 10.0 | 14.0 | 0.00 | 0.00 | 0.00 | 35 | 1015.4 |
| 20260903234503 | 71 | 208 | 10.0 | 17.0 | 0.00 | 0.00 | 0.00 | 36 | 1015.4 |
| 20260903233003 | 71 | 227 | 11.0 | 17.0 | 0.00 | 0.00 | 0.00 | 35 | 1015.4 |
| 20260903231504 | 71 | 231 | 11.0 | 19.0 | 0.00 | 0.00 | 0.00 | 36 | 1015.4 |
| 20260903230503 | 72 | 226 | 11.0 | 19.0 | 0.00 | 0.00 | 0.00 | 37 | 1015.5 |
| 20260903230003 | 72 | 206 | 10.0 | 19.0 | 0.00 | 0.00 | 0.00 | 37 | 1015.7 |
| 20260903225503 | 72 | 223 | 10.0 | 15.0 | 0.00 | 0.00 | 0.00 | 36 | 1015.7 |
| 20260903225004 | 72 | 230 | 10.0 | 18.0 | 0.00 | 0.00 | 0.00 | 37 | 1015.7 |
| 20260903224503 | 72 | 226 | 9.0 | 18.0 | 0.00 | 0.00 | 0.00 | 38 | 1015.8 |
| 20260903224003 | 72 | 233 | 9.0 | 14.0 | 0.00 | 0.00 | 0.00 | 38 | 1015.8 |
| 20260903223503 | 72 | 230 | 9.0 | 16.0 | 0.00 | 0.00 | 0.00 | 39 | 1015.9 |
| 20260903223004 | 72 | 227 | 9.0 | 14.0 | 0.00 | 0.00 | 0.00 | 39 | 1015.9 |
| 20260903222003 | 72 | 228 | 10.0 | 16.0 | 0.00 | 0.00 | 0.00 | 39 | 1016.0 |
| 20260903221503 | 72 | 228 | 9.0 | 18.0 | 0.00 | 0.00 | 0.00 | 40 | 1016.0 |
| 20260903221004 | 72 | 230 | 9.0 | 16.0 | 0.00 | 0.00 | 0.00 | 39 | 1016.0 |
| 20260903220503 | 73 | 233 | 8.0 | 17.0 | 0.00 | 0.00 | 0.00 | 38 | 1016.0 |
| 20260903220003 | 74 | 220 | 8.0 | 13.0 | 0.00 | 0.00 | 0.00 | 39 | 1016.1 |
| 20260903214503 | 74 | 204 | 3.0 | 6.0 | 0.00 | 0.00 | 0.00 | 41 | 1016.3 |
| 20260903214004 | 74 | 168 | 4.0 | 8.0 | 0.00 | 0.00 | 0.00 | 41 | 1016.3 |
| 20260903213004 | 73 | 230 | 4.0 | 6.0 | 0.00 | 0.00 | 0.00 | 41 | 1016.4 |
| 20260903212502 | 73 | 240 | 5.0 | 7.0 | 0.00 | 0.00 | 0.00 | 42 | 1016.3 |
| 20260903212002 | 73 | 203 | 5.0 | 11.0 | 0.00 | 0.00 | 0.00 | 42 | 1016.4 |
| 20260903211503 | 73 | 229 | 6.0 | 12.0 | 0.00 | 0.00 | 0.00 | 42 | 1016.4 |
| 20260903211003 | 73 | 206 | 8.0 | 10.0 | 0.00 | 0.00 | 0.00 | 42 | 1016.4 |
| 20260903210502 | 72 | 215 | 9.0 | 14.0 | 0.00 | 0.00 | 0.00 | 43 | 1016.4 |
| 20260903210003 | 72 | 226 | 9.0 | 15.0 | 0.00 | 0.00 | 0.00 | 43 | 1016.3 |
| 20260903205502 | 72 | 194 | 9.0 | 16.0 | 0.00 | 0.00 | 0.00 | 44 | 1016.3 |
| 20260903205002 | 71 | 224 | 9.0 | 17.0 | 0.00 | 0.00 | 0.00 | 45 | 1016.2 |
| 20260903204502 | 70 | 233 | 11.0 | 17.0 | 0.00 | 0.00 | 0.00 | 47 | 1016.3 |
| 20260903204002 | 69 | 232 | 11.0 | 16.0 | 0.00 | 0.00 | 0.00 | 48 | 1016.3 |
| 20260903203502 | 69 | 235 | 10.0 | 16.0 | 0.00 | 0.00 | 0.00 | 48 | 1016.2 |
| 20260903202502 | 69 | 236 | 11.0 | 19.0 | 0.00 | 0.00 | 0.00 | 49 | 1016.4 |
| 20260903202002 | 68 | 231 | 13.0 | 18.0 | 0.00 | 0.00 | 0.00 | 50 | 1016.5 |
| 20260903201502 | 68 | 241 | 13.0 | 20.0 | 0.00 | 0.00 | 0.00 | 50 | 1016.4 |
| 20260903201002 | 68 | 236 | 12.0 | 22.0 | 0.00 | 0.00 | 0.00 | 50 | 1016.5 |
| 20260903200502 | 69 | 239 | 13.0 | 17.0 | 0.00 | 0.00 | 0.00 | 50 | 1016.6 |
| 20260903200002 | 68 | 234 | 12.0 | 18.0 | 0.00 | 0.00 | 0.00 | 50 | 1016.6 |
| 20260903195503 | 68 | 241 | 11.0 | 19.0 | 0.00 | 0.00 | 0.00 | 51 | 1016.7 |
| 20260903195003 | 68 | 243 | 11.0 | 14.0 | 0.00 | 0.00 | 0.00 | 52 | 1016.8 |
| 20260903194502 | 67 | 241 | 12.0 | 21.0 | 0.00 | 0.00 | 0.00 | 53 | 1016.6 |
| 20260903194002 | 67 | 241 | 13.0 | 18.0 | 0.00 | 0.00 | 0.00 | 53 | 1016.7 |
| 20260903193503 | 67 | 238 | 12.0 | 20.0 | 0.00 | 0.00 | 0.00 | 53 | 1016.8 |
| 20260903193002 | 67 | 238 | 12.0 | 18.0 | 0.00 | 0.00 | 0.00 | 52 | 1016.9 |
| 20260903192502 | 67 | 235 | 13.0 | 18.0 | 0.00 | 0.00 | 0.00 | 52 | 1016.9 |
| 20260903192002 | 67 | 235 | 12.0 | 19.0 | 0.00 | 0.00 | 0.00 | 51 | 1016.8 |
| 20260903191502 | 67 | 235 | 11.0 | 18.0 | 0.00 | 0.00 | 0.00 | 49 | 1016.8 |
| 20260903191003 | 67 | 236 | 11.0 | 17.0 | 0.00 | 0.00 | 0.00 | 52 | 1017.1 |
| 20260903190502 | 67 | 235 | 12.0 | 17.0 | 0.00 | 0.00 | 0.00 | 52 | 1017.0 |
| 20260903190003 | 66 | 236 | 13.0 | 18.0 | 0.00 | 0.00 | 0.00 | 53 | 1017.2 |
| 20260903185503 | 66 | 237 | 12.0 | 17.0 | 0.00 | 0.00 | 0.00 | 51 | 1017.1 |
| 20260903185002 | 66 | 237 | 11.0 | 19.0 | 0.00 | 0.00 | 0.00 | 54 | 1017.3 |
| 20260903184503 | 66 | 233 | 11.0 | 18.0 | 0.00 | 0.00 | 0.00 | 53 | 1017.4 |
| 20260903184002 | 66 | 237 | 11.0 | 20.0 | 0.00 | 0.00 | 0.00 | 52 | 1017.3 |
| 20260903183502 | 66 | 234 | 11.0 | 17.0 | 0.00 | 0.00 | 0.00 | 53 | 1017.4 |
| 20260903183003 | 66 | 237 | 10.0 | 15.0 | 0.00 | 0.00 | 0.00 | 53 | 1017.5 |
| 20260903182502 | 66 | 239 | 9.0 | 18.0 | 0.00 | 0.00 | 0.00 | 52 | 1017.5 |
| 20260903182002 | 65 | 233 | 10.0 | 16.0 | 0.00 | 0.00 | 0.00 | 54 | 1017.5 |
| 20260903181502 | 65 | 238 | 9.0 | 15.0 | 0.00 | 0.00 | 0.00 | 55 | 1017.6 |
| 20260903181003 | 64 | 235 | 10.0 | 15.0 | 0.00 | 0.00 | 0.00 | 56 | 1017.6 |
| 20260903180502 | 64 | 232 | 10.0 | 14.0 | 0.00 | 0.00 | 0.00 | 56 | 1017.6 |
| 20260903180003 | 64 | 236 | 9.0 | 18.0 | 0.00 | 0.00 | 0.00 | 56 | 1017.7 |
| 20260903175502 | 64 | 238 | 7.0 | 15.0 | 0.00 | 0.00 | 0.00 | 58 | 1017.8 |
| 20260903175002 | 63 | 239 | 7.0 | 16.0 | 0.00 | 0.00 | 0.00 | 60 | 1017.9 |
| 20260903174503 | 63 | 239 | 7.0 | 14.0 | 0.00 | 0.00 | 0.00 | 60 | 1017.9 |